Flag for United Kingdom Weather past 2 weeks in Edinburgh, Scotland, United Kingdom

Now
37 °F

Light rain. Broken clouds.


Feels Like: 27 °F
Forecast: 36 / 45 °F
Wind: 21 mph from West

Location: Edinburgh Airport

Current Time: Mar 31, 2015 at 11:15:26 AM

Latest Report: Mar 31, 2015 at 10:50 AM


Visibility: N/A

Pressure: 29.45 "Hg

Humidity: 87%

Dew point: 34 °F

Location of EdinburghLocation

Historic Weather in Edinburgh — Graph

°F

Edinburgh temperature yesterday

Maximum temperature yesterday: 48 °F (at 8:50 PM)
Minimum temperature yesterday: 34 °F (at 1:50 AM)
Average temperature yesterday: 40 °F

Past Weeks' High & Low Weather Summary

 TemperatureHumidityPressure
High55 °F (Mar 20, 12:20 PM)100% (Mar 16, 10:20 AM)30.60 "Hg (Mar 16, 10:20 AM)
Low27 °F (Mar 25, 5:20 AM)47% (Mar 23, 2:50 PM)28.88 "Hg (Mar 31, 1:20 AM)
Average42 °F80%29.94 "Hg
* Reported Mar 16 9:20 AM — Mar 31 10:20 AM, Edinburgh, Weather by CustomWeather, © 2015

Note: Actual official high and low records may vary slightly from our data, if they occured in-between our weather recording intervals... More about our weather records

Advertising

Edinburgh weather history for previous 24 hours

 ConditionsComfort  
Time TempWeatherWind HumidityBarometerVisibility
10:20 AM
Tue, Mar 31
39 °FScattered clouds.16 mph87%29.42 "HgN/A
9:50 AM39 °FLight rain. Broken clouds.17 mph81%29.42 "HgN/A
9:20 AM43 °FScattered clouds.17 mph71%29.42 "HgN/A
8:50 AM41 °FScattered clouds.14 mph76%29.39 "HgN/A
8:20 AM41 °FPassing clouds.14 mph70%29.39 "HgN/A
7:50 AM41 °FPassing clouds.17 mph70%29.36 "HgN/A
7:20 AM39 °FPassing clouds.14 mph70%29.36 "HgN/A
6:50 AM41 °FPassing clouds.14 mph70%29.30 "HgN/A
6:20 AM41 °FPassing clouds.13 mph70%29.27 "HgN/A
5:50 AM41 °FClear.14 mph70%29.24 "Hg10 mi
5:20 AM41 °FClear.14 mph76%29.21 "Hg10 mi
4:50 AM43 °FClear.16 mph71%29.15 "Hg10 mi
4:20 AM43 °FPassing clouds.13 mph71%29.12 "HgN/A
3:50 AM45 °FPassing clouds.15 mph71%29.06 "HgN/A
3:20 AM45 °FPassing clouds.15 mph76%29.00 "HgN/A
2:50 AM46 °FPartly cloudy.18 mph76%28.94 "HgN/A
2:20 AM46 °FPassing clouds.22 mph82%28.88 "HgN/A
1:50 AM46 °FLight rain. Mostly cloudy.24 mph82%28.88 "HgN/A
1:20 AM46 °FMostly cloudy.23 mph82%28.88 "HgN/A
12:20 AM46 °FLight rain. Mostly cloudy.21 mph82%28.91 "HgN/A
11:50 PM
Mon, Mar 30
46 °FLight rain. Mostly cloudy.17 mph82%28.91 "HgN/A
11:20 PM46 °FPartly cloudy.24 mph82%28.91 "HgN/A
10:50 PM48 °FLight rain. Mostly cloudy.22 mph76%28.91 "HgN/A
10:20 PM48 °FPartly cloudy.17 mph82%28.94 "HgN/A
9:50 PM48 °FLight rain. Partly cloudy.23 mph82%28.97 "Hg6 mi
9:20 PM48 °FLight rain. Partly cloudy.25 mph87%28.97 "HgN/A
8:50 PM48 °FLight rain. Partly cloudy.25 mph87%29.00 "HgN/A
8:20 PM45 °FLight rain. Broken clouds.17 mph87%29.06 "Hg5 mi
7:50 PM45 °FLight rain. Partly sunny.21 mph87%29.09 "Hg5 mi
7:20 PM43 °FLight rain. Broken clouds.29 mph87%29.12 "Hg5 mi
6:50 PM39 °FBroken clouds.9 mph87%29.21 "HgN/A
6:20 PM39 °FRain. Partly sunny.15 mph87%29.27 "Hg5 mi
5:50 PM39 °FLight rain. Overcast.17 mph87%29.33 "HgN/A
5:20 PM39 °FLight rain. Partly sunny.18 mph87%29.36 "HgN/A
4:50 PM41 °FLight rain. Partly sunny.16 mph87%29.42 "HgN/A
4:20 PM41 °FLight rain. Partly sunny.18 mph87%29.45 "HgN/A
3:50 PM43 °FLight rain. Partly sunny.25 mph76%29.45 "HgN/A
3:20 PM45 °FScattered clouds.21 mph71%29.47 "HgN/A
2:50 PM45 °FPartly sunny.21 mph71%29.50 "HgN/A
2:20 PM46 °FScattered clouds.15 mph76%29.50 "HgN/A
1:50 PM43 °FPartly sunny.14 mph87%29.53 "HgN/A
1:20 PM43 °FSprinkles. Partly sunny.15 mph87%29.53 "HgN/A
12:50 PM41 °FScattered clouds.14 mph87%29.56 "HgN/A
12:20 PM41 °FSprinkles. Broken clouds.17 mph87%29.56 "Hg5 mi
11:50 AM43 °FPassing clouds.15 mph81%29.56 "HgN/A
11:20 AM41 °FPassing clouds.14 mph87%29.56 "HgN/A
Weather by CustomWeather, © 2015

See weather overviewHow to use our weather pages